ICT,Max TemperatureF,Mean TemperatureF,Min TemperatureF,Max Dew PointF,MeanDew PointF,Min DewpointF,Max Humidity, Mean Humidity, Min Humidity, Max Sea Level PressureIn, Mean Sea Level PressureIn, Min Sea Level PressureIn, Max VisibilityMiles, Mean VisibilityMiles, Min VisibilityMiles, Max Wind SpeedMPH, Mean Wind SpeedMPH, Max Gust SpeedMPH,PrecipitationIn, CloudCover, Events, WindDirDegrees
2013-3-1,96,86,77,73,70,64,89,57,36,29.89,29.79,29.71,6,6,4,12,5,,0.00,2,,162
2013-3-2,95,86,77,75,73,70,83,63,47,29.92,29.82,29.74,6,5,3,9,4,,0.00,2,,200
2013-3-3,89,81,73,75,72,68,94,68,49,29.95,29.89,29.83,6,6,0,17,7,26,0.00,4,Rain,56
2013-3-4,89,81,73,73,65,63,83,62,46,30.01,29.94,29.86,6,6,6,17,10,20,0.00,3,,345
2013-3-5,89,80,71,66,63,61,83,52,40,30.04,29.94,29.86,6,6,6,9,6,,0.00,2,,334
2013-3-6,91,83,75,70,63,57,74,50,31,30.01,29.91,29.80,6,5,5,40,6,,0.00,1,,127
2013-3-7,93,86,78,72,66,61,74,52,34,29.98,29.89,29.83,6,6,5,15,6,,0.00,1,,141
2013-3-8,93,86,77,72,64,57,78,51,31,29.95,29.86,29.80,6,6,6,15,6,,0.00,,,162
2013-3-9,93,84,75,73,70,61,89,61,34,29.92,29.83,29.74,6,5,1,13,4,,0.00,3,,222
2013-3-10,93,84,75,73,71,66,89,63,41,29.92,29.82,29.74,6,5,2,10,4,,0.00,3,,206
2013-3-11,95,86,77,75,71,64,89,60,36,29.89,29.81,29.71,6,5,2,8,3,,0.00,2,,185
2013-3-12,95,86,78,75,72,68,89,65,44,29.89,29.81,29.71,6,5,2,17,5,,0.00,3,,210
2013-3-13,96,88,80,73,69,59,79,57,28,29.92,29.83,29.74,6,6,4,8,4,,0.00,2,,161
2013-3-14,96,86,77,77,72,68,89,63,44,29.92,29.85,29.77,6,6,5,10,4,,0.00,2,Rain-Thunderstorm,233
2013-3-15,91,84,77,73,72,72,89,66,52,29.98,29.89,29.83,6,6,5,12,6,,0.00,3,,49
2013-3-16,91,83,75,73,72,72,89,67,52,29.98,29.90,29.83,6,6,5,12,5,,0.00,3,,154
2013-3-17,96,87,78,75,72,68,89,59,39,29.92,29.80,29.71,6,6,3,8,4,,0.00,2,,214
2013-3-18,95,88,80,75,72,70,84,64,44,29.86,29.76,29.65,6,6,6,10,4,,0.00,3,,223
2013-3-19,98,88,78,77,72,66,89,58,35,29.83,29.74,29.65,6,6,4,8,4,,0.00,2,,207
2013-3-20,98,89,80,75,72,64,84,57,32,29.86,29.76,29.68,6,6,6,7,2,,0.00,3,,245
2013-3-21,96,88,80,75,72,68,79,58,39,29.83,29.74,29.65,6,6,6,7,1,,0.00,1,,183
2013-3-22,96,88,80,75,72,66,84,60,41,29.83,29.75,29.65,6,6,6,4,0,,0.00,2,,229
2013-3-23,96,88,80,77,72,70,74,58,41,29.83,29.75,29.65,6,6,6,8,2,,0.00,2,,223
2013-3-24,98,89,80,79,73,70,79,60,41,29.83,29.73,29.62,6,6,6,10,3,,0.00,3,,226
2013-3-25,100,90,80,77,71,68,79,56,35,29.80,29.70,29.59,6,6,5,13,2,13,0.00,3,,249
2013-3-26,98,89,80,75,71,66,84,57,37,29.80,29.72,29.62,6,6,4,14,1,29,0.00,2,,192
2013-3-27,100,90,80,75,71,66,74,54,35,29.83,29.73,29.62,6,6,6,5,0,15,0.00,1,,160
2013-3-28,98,89,80,77,72,66,79,58,35,29.83,29.75,29.65,6,6,4,14,3,,0.00,3,,171
2013-3-29,100,90,80,75,72,66,84,56,33,29.80,29.72,29.62,6,6,6,12,3,23,0.00,1,,202
2013-3-30,98,89,80,77,72,64,89,55,32,29.80,29.71,29.62,6,6,5,12,2,,0.00,2,,181
2013-3-31,100,91,82,75,71,66,79,51,33,29.83,29.72,29.62,6,6,6,8,2,,0.00,1,,185